Change the Weather History Date:

Thursday, January 2, 2014

  Actual Average Record
Temperature  
Mean Temperature 9 °F 25 °F  
Max Temperature 16 °F 33 °F 65 °F (2004)
Min Temperature 2 °F 18 °F -20 °F (1887)
Degree Days  
Heating Degree Days 56 40  
Month to date heating degree days 101 80  
Since 1 July heating degree days 2527 2358  
Cooling Degree Days 0 0  
Month to date cooling degree days 0 0  
Year to date cooling degree days 0 0  
Moisture  
Dew Point 6 °F    
Average Humidity 77    
Maximum Humidity 86    
Minimum Humidity 67    
Precipitation  
Precipitation 0.01 in 0.06 in 1.17 in (1951)
Month to date precipitation 0.16 0.13  
Year to date precipitation 0.16 0.13  
Snow  
Snow 0.20 in 0.20 in 8.70 in (1999)
Month to date snowfall 1.9 0.4  
Since 1 July snowfall 11.0 8.6  
Snow Depth 2.00 in    
Sea Level Pressure  
Sea Level Pressure 30.30 in    
Wind  
Wind Speed 9 mph (NNW)    
Max Wind Speed 16 mph    
Max Gust Speed 24 mph    
Visibility 7 miles    
Events Snow    
T = Trace of Precipitation, MM = Missing Value Source: NWS Daily Summary

Daily Weather History Graph

Daily Weather History Graph

Search for Another Location

Airport or City:

Trip Planner

Search our weather history database for the weather conditions in past years. The results will help you decide how hot, cold, wet, or windy it might be!

Date:

Astronomy

Jan. 02, 2014 Rise Set
Actual Time 7:22 AM CST 4:43 PM CST
Civil Twilight 6:51 AM CST 5:13 PM CST
Nautical Twilight 6:17 AM CST 5:48 PM CST
Astronomical Twilight 5:44 AM CST 6:21 PM CST
Moon 8:03 AM CST (1/2) 6:40 PM CST (1/2)
Length of Visible Light 10h 21m
Length of Day
9h 20m
Waxing Crescent, 3% of the Moon is Illuminated
Jan 2
Waxing Crescent
Jan 7
First Quarter
Jan 15
Full
Jan 23
Last Quarter
Jan 30
New

Hourly Weather History & Observations

Time (CST) Temp. Windchill Dew Point Humidity Pressure Visibility Wind Dir Wind Speed Gust Speed Precip Events Conditions
12:17 AM 15.1 °F 1.1 °F 9.0 °F 77% 30.14 in 2.5 mi North 12.7 mph 20.7 mph 0.00 in Snow Light Snow
12:20 AM 15.1 °F 3.3 °F 9.0 °F 77% 30.14 in 3.0 mi North 9.2 mph 21.9 mph 0.01 in Snow Light Snow
12:54 AM 15.1 °F 4.2 °F 9.0 °F 77% 30.18 in 10.0 mi North 8.1 mph - 0.01 in   Overcast
1:44 AM 15.1 °F 2.5 °F 9.0 °F 77% 30.15 in 10.0 mi North 10.4 mph 19.6 mph N/A   Overcast
1:54 AM 15.1 °F 4.2 °F 9.0 °F 77% 30.19 in 10.0 mi North 8.1 mph - N/A   Overcast
2:54 AM 12.9 °F -0.2 °F 7.0 °F 77% 30.18 in 10.0 mi North 10.4 mph - N/A   Overcast
3:54 AM 12.9 °F -2.2 °F 6.1 °F 74% 30.18 in 10.0 mi North 13.8 mph 18.4 mph N/A   Overcast
4:54 AM 12.9 °F -2.2 °F 7.0 °F 77% 30.19 in 10.0 mi North 13.8 mph 21.9 mph N/A   Overcast
5:50 AM 12.2 °F -2.5 °F 6.8 °F 79% 30.18 in 6.0 mi NNW 12.7 mph 19.6 mph 0.00 in Snow Light Snow
5:54 AM 12.0 °F -1.3 °F 6.1 °F 77% 30.22 in 6.0 mi North 10.4 mph 19.6 mph 0.00 in Snow Light Snow
6:51 AM 12.2 °F -1.0 °F 6.8 °F 79% 30.20 in 7.0 mi NNW 10.4 mph 18.4 mph 0.00 in Snow Light Snow
6:54 AM 12.0 °F -1.3 °F 6.1 °F 77% 30.23 in 7.0 mi NNW 10.4 mph 18.4 mph 0.00 in Snow Light Snow
7:54 AM 12.0 °F -2.7 °F 6.1 °F 77% 30.25 in 3.0 mi North 12.7 mph 19.6 mph 0.00 in Snow Light Snow
8:00 AM 12.0 °F -0.4 °F 6.1 °F 77% 30.21 in 2.5 mi NNW 9.2 mph 19.6 mph 0.00 in Snow Light Snow
8:20 AM 12.0 °F 0.5 °F 6.1 °F 77% 30.22 in 1.8 mi NNW 8.1 mph 16.1 mph 0.00 in Snow Light Snow
8:37 AM 12.0 °F -3.4 °F 6.1 °F 77% 30.23 in 2.0 mi NNW 13.8 mph 21.9 mph 0.00 in Snow Light Snow
8:54 AM 12.0 °F -2.7 °F 6.1 °F 77% 30.27 in 2.5 mi NNW 12.7 mph - 0.00 in Snow Light Snow
9:05 AM 12.0 °F -3.4 °F 6.1 °F 77% 30.24 in 2.0 mi NNW 13.8 mph - 0.00 in Snow Light Snow
9:10 AM 12.9 °F -0.2 °F 6.1 °F 74% 30.24 in 1.8 mi NNW 10.4 mph - 0.00 in Snow Light Snow
9:54 AM 12.9 °F -0.9 °F 7.0 °F 77% 30.30 in 1.5 mi North 11.5 mph - 0.00 in Snow Light Snow
10:36 AM 14.0 °F 2.9 °F 7.0 °F 74% 30.26 in 2.0 mi NNW 8.1 mph 19.6 mph 0.00 in Snow Light Snow
10:51 AM 14.0 °F 1.2 °F 6.8 °F 73% 30.27 in 3.0 mi NNW 10.4 mph - 0.00 in Snow Light Snow
10:54 AM 14.0 °F -1.4 °F 7.0 °F 74% 30.30 in 3.0 mi NNW 15.0 mph 24.2 mph 0.00 in Snow Light Snow
11:18 AM 14.0 °F -0.2 °F 6.1 °F 71% 30.27 in 3.0 mi NNW 12.7 mph 19.6 mph 0.00 in Snow Light Snow
11:42 AM 14.0 °F 0.5 °F 6.1 °F 71% 30.26 in 5.0 mi NNW 11.5 mph 23.0 mph 0.00 in Snow Light Snow
11:54 AM 15.1 °F 2.5 °F 7.0 °F 70% 30.30 in 4.0 mi NNW 10.4 mph 21.9 mph 0.00 in Snow Light Snow
12:54 PM 16.0 °F 2.9 °F 7.0 °F 68% 30.30 in 8.0 mi NNW 11.5 mph 19.6 mph 0.00 in   Overcast
1:26 PM 15.1 °F 1.1 °F 7.0 °F 70% 30.27 in 10.0 mi NW 12.7 mph 19.6 mph N/A   Overcast
1:54 PM 15.1 °F 1.8 °F 6.1 °F 68% 30.32 in 7.0 mi North 11.5 mph 20.7 mph 0.00 in Snow Light Snow
2:54 PM 15.1 °F 3.3 °F 6.1 °F 68% 30.35 in 10.0 mi North 9.2 mph - 0.00 in   Mostly Cloudy
3:33 PM 15.1 °F 5.2 °F 6.1 °F 68% 30.34 in 10.0 mi NNW 6.9 mph - N/A   Mostly Cloudy
3:54 PM 14.0 °F 1.2 °F 6.1 °F 71% 30.39 in 10.0 mi NNW 10.4 mph - N/A   Mostly Cloudy
4:16 PM 14.0 °F 2.0 °F 5.0 °F 67% 30.35 in 10.0 mi NNW 9.2 mph - N/A   Scattered Clouds
4:54 PM 12.0 °F 4.1 °F 5.0 °F 73% 30.41 in 10.0 mi NNW 4.6 mph - N/A   Clear
5:54 PM 10.9 °F 0.2 °F 3.9 °F 73% 30.44 in 10.0 mi NNW 6.9 mph - N/A   Clear
6:54 PM 9.0 °F 0.6 °F 3.0 °F 77% 30.46 in 10.0 mi NNW 4.6 mph - N/A   Clear
7:54 PM 8.1 °F -2.0 °F 3.0 °F 80% 30.48 in 10.0 mi NW 5.8 mph - N/A   Clear
8:54 PM 7.0 °F - 1.9 °F 80% 30.48 in 10.0 mi Calm Calm - N/A   Clear
9:54 PM 3.9 °F -3.4 °F -0.0 °F 84% 30.50 in 10.0 mi NW 3.5 mph - N/A   Clear
10:54 PM 3.0 °F - -0.9 °F 84% 30.49 in 10.0 mi Calm Calm - N/A   Clear
11:54 PM 1.9 °F -5.6 °F -2.0 °F 83% 30.49 in 10.0 mi NW 3.5 mph - N/A   Clear